Regional Weather Roundup
Issued by NWS Bismarck, ND

Home | Current Version | Previous Version | Text Only | Print | Product List | Glossary On
Versions: 1 2 3 4 5 6 7 8 9 10 11 12 13 14 15 16 17 18 19 20 21 22 23 24 25 26 27 28 29 30 31 32 33 34 35 36 37 38 39 40 41 42 43 44 45 46 47 48 49 50
000
ASUS43 KBIS 291702
RWRBIS

NWR BROADCAST TEXT
NATIONAL WEATHER SERVICE BISMARCK ND
1200 PM CDT FRI APR 29 2016

NOTE: "FAIR" INDICATES FEW OR NO CLOUDS BELOW 12,000 FEET WITH NO
SIGNIFICANT WEATHER AND/OR OBSTRUCTIONS TO VISIBILITY.


CITY           SKY/WX    TMP DP  RH WIND       PRES   REMARKS
WILLISTON      CLOUDY    54  27  35 SE14      30.18S
MINOT          SUNNY     58  24  27 VRB7      30.20F
MINOT AFB      SUNNY     54  25  32 E12       30.19F
BISMARCK       SUNNY     55  30  38 NE10      30.16F
DICKINSON      CLOUDY    49  29  46 E15       30.11F
GARRISON         N/A     54  21  27 SE13G22   30.18F
HETTINGER ARPT CLOUDY    51  30  44 E7        30.12R
JAMESTOWN      SUNNY     57  31  37 E9        30.16F
CARRINGTON     FAIR      55  28  35 NE12G17   30.22S
HAZEN          FAIR      55  25  30 E13G18    30.19F
OAKES            N/A    N/A N/A N/A MISG        N/A
STANLEY        FAIR      54  23  30 SE12      30.21S
$$

CITY           SKY/WX    TMP DP  RH WIND       PRES   REMARKS
GRAND FORKS    MOSUNNY   57  32  38 E13       30.22S
GRAND FORKS AF SUNNY     56  31  37 E12       30.22S
DEVILS LAKE    SUNNY     53  30  41 NE13      30.23S
FARGO          SUNNY     59  33  37 VRB3      30.17F
CAVALIER       FAIR      54  32  43 E6        30.25S
GRAFTON        FAIR      55  30  38 NE13      30.25S
GWINNER        FAIR      55  36  47 NE12      30.15S
LANGDON        FAIR      55  28  35 VRB7G15   30.24S
$$

CITY           SKY/WX    TMP DP  RH WIND       PRES   REMARKS
ABERDEEN       SUNNY     54  38  54 NE6       30.14F
MOBRIDGE       SUNNY     55  36  48 NE9       30.09F
BUFFALO          N/A     47  34  60 SE12      30.04R
RAPID CITY     CLOUDY    40  34  79 E8        30.09S
GLASGOW        CLOUDY    47  36  65 SE10      30.11F
SIDNEY         CLOUDY    54  34  47 SE15G21   30.16F
WOLF POINT     CLOUDY    54  30  40 SE10      30.13F
GLENDIVE       CLOUDY    46  34  61 E9        30.14F
MILES CITY     PTSUNNY   49  36  61 SE12      30.08S
BAKER          CLOUDY    46  34  62 E13G23    30.10F
$$

CITY           SKY/WX    TMP DP  RH WIND       PRES   REMARKS
BILLINGS       CLOUDY    41  36  82 NE7       30.01F
GREAT FALLS    MOSUNNY   44  30  57 CALM      29.97S
$$




USA.gov is the U.S. government's official web portal to all federal, state and local government web resources and services.